[[{"header":{"parameterUnit":"m.s-1","parameterCategory":1,"la1":30.2991,"la2":30.254,"lo1":-89.0895,"lo2":-89.0444,"dy":0.0017,"dx":0.0017,"nx":28,"ny":28,"refTime":"2026-02-26T03:00:00:Z","depth":0,"parameterNumber":2,"parameterNumberName":"U-component_of_WINDS"},"data":[0,0,0,0,0,0,0,0,0,0,0,0,0,0,0,0,0,0,0,0,0,0,0,0,0,0,0,0,0,0,0,0,0,0,0,0,0,0,0,0,0,0,0,0,0,0,0,0,0,0,0,0,0,0,0,0,0,0,-0.2794,-0.2792,0,-0.2654,-0.2652,-0.265,-0.2596,-0.2596,-0.2597,-0.2597,-0.2456,-0.2452,-0.2448,0,0,0,0,0,0,0,0,0,0,0,0,0,-0.3016,-0.3012,-0.2794,-0.2792,-0.279,-0.2654,-0.2652,-0.265,-0.2596,-0.2596,-0.2597,-0.2597,-0.2457,-0.2453,-0.2448,0,0,0,0,0,0,0,0,0,0,0,0,0,-0.2902,-0.3011,-0.2794,-0.2747,-0.2741,-0.2654,-0.2652,-0.265,-0.2596,-0.2596,-0.2597,-0.2597,-0.2459,-0.2453,-0.2447,-0.2398,0,0,-0.2428,-0.2426,0,0,0,0,0,0,0,0,-0.2908,-0.2894,-0.2755,-0.275,-0.2743,-0.2643,-0.2678,-0.2565,-0.2596,-0.2651,-0.2597,-0.2598,-0.2518,-0.2507,-0.248,-0.2391,-0.2385,-0.2428,-0.2424,-0.2421,-0.242,0,0,0,0,0,0,0,-0.2916,-0.29,-0.2738,-0.2753,-0.2746,-0.2733,-0.2717,-0.2657,-0.2583,-0.2646,-0.2642,-0.2626,-0.2515,-0.2486,-0.2476,-0.2383,-0.2428,-0.2422,-0.2419,-0.2416,-0.2246,-0.2246,0,0,0,0,0,0,-0.2932,-0.2906,-0.2743,-0.2734,-0.2829,-0.2728,-0.2711,-0.2675,-0.2584,-0.257,-0.2626,-0.2624,-0.2496,-0.2483,-0.2471,-0.2406,-0.2421,-0.2416,-0.2412,-0.2247,-0.2246,-0.2245,0,0,0,0,0,0,-0.2937,-0.2918,-0.2748,-0.2819,-0.2796,-0.2724,-0.2683,-0.2671,-0.2642,-0.2568,-0.2555,-0.2609,-0.2496,-0.2479,-0.2416,-0.2401,-0.2413,-0.2407,-0.2248,-0.2247,-0.2246,-0.2278,0,0,0,0,0,0,-0.2943,-0.292,-0.29,-0.2819,-0.2793,-0.2696,-0.2682,-0.2668,-0.2631,-0.2628,-0.2549,-0.2537,-0.2495,-0.2425,-0.241,-0.2392,-0.2402,-0.2249,-0.2248,-0.2246,-0.2278,-0.2278,-0.2278,0,0,0,0,0,-0.2952,-0.2915,-0.2899,-0.288,-0.2767,-0.2695,-0.268,-0.2632,-0.263,-0.261,-0.2562,-0.2539,-0.2405,-0.2419,-0.2401,-0.2382,-0.225,-0.2248,-0.2246,-0.2278,-0.2278,-0.2278,0,0,0,0,0,0,-0.2998,-0.2904,-0.2885,-0.2822,-0.2766,-0.2686,-0.2659,-0.2634,-0.2579,-0.2578,-0.2521,-0.2504,-0.2445,-0.2407,-0.2425,-0.2329,-0.2326,-0.232,-0.2356,-0.2355,-0.2355,-0.2366,-0.2397,0,0,0,0,0,-0.3,-0.2949,-0.287,-0.2822,-0.2795,-0.2732,-0.2699,-0.2666,-0.2607,-0.2584,-0.2532,-0.2476,-0.2421,-0.2386,-0.2332,-0.2272,-0.2254,-0.225,-0.225,-0.225,-0.2246,-0.2211,-0.2208,-0.2239,-0.2239,-0.2239,0,0,-0.3005,-0.2948,-0.2919,-0.283,-0.2783,-0.2732,-0.2713,-0.266,-0.2621,-0.2576,-0.2513,-0.2472,-0.2406,-0.2345,-0.2315,-0.2311,-0.2234,-0.2248,-0.2249,-0.2244,-0.2209,-0.2206,-0.2204,-0.2238,-0.2238,-0.2238,0,0,-0.2989,-0.294,-0.2894,-0.2847,-0.2777,-0.2735,-0.2724,-0.2646,-0.2618,-0.2553,-0.2518,-0.2472,-0.2379,-0.2333,-0.2297,-0.2262,-0.2239,-0.2246,-0.2246,-0.2213,-0.2211,-0.2208,-0.2195,-0.2191,-0.2242,-0.2242,-0.2242,0,-0.3004,-0.2925,-0.2874,-0.2822,-0.2783,-0.2739,-0.2692,-0.265,-0.2566,-0.2541,-0.2537,-0.2419,-0.2371,-0.2298,-0.2289,-0.2262,-0.2248,-0.2255,-0.2215,-0.2212,-0.2209,-0.2196,-0.2191,-0.2244,-0.2243,-0.2243,-0.2243,0,-0.2947,-0.2893,-0.2864,-0.2783,-0.2741,-0.2692,-0.2634,-0.2598,-0.2569,-0.2527,-0.2462,-0.2403,-0.2336,-0.2316,-0.2288,-0.2238,-0.2238,-0.2226,-0.2221,-0.2208,-0.2195,-0.219,-0.2246,-0.2245,-0.2245,-0.2244,0,0,-0.2956,-0.2846,-0.2836,-0.2798,-0.2717,-0.2674,-0.2623,-0.2556,-0.2526,-0.2469,-0.2425,-0.2347,-0.2335,-0.2294,-0.2261,-0.2232,-0.2207,-0.2223,-0.222,-0.2221,-0.2148,-0.2158,-0.2153,-0.2191,-0.219,-0.2189,-0.2153,0,-0.2928,-0.2833,-0.2786,-0.2712,-0.2661,-0.2619,-0.2574,-0.252,-0.2479,-0.2431,-0.2386,-0.2331,-0.232,-0.2295,-0.2264,-0.2217,-0.2191,-0.2218,-0.215,-0.2148,-0.2167,-0.2146,-0.2156,-0.2125,-0.2148,-0.2147,-0.2147,0,-0.2882,-0.2825,-0.2746,-0.267,-0.2647,-0.2608,-0.2542,-0.2496,-0.2433,-0.2406,-0.236,-0.2327,-0.2272,-0.2272,-0.2195,-0.2215,-0.2184,-0.2156,-0.2154,-0.2145,-0.2146,-0.2137,-0.2114,-0.211,-0.2138,-0.2139,-0.2139,0,-0.2896,-0.2799,-0.2739,-0.2708,-0.2618,-0.2591,-0.2552,-0.249,-0.2453,-0.2396,-0.2371,-0.2309,-0.2274,-0.2227,-0.2178,-0.2183,-0.2106,-0.2102,-0.2082,-0.2083,-0.2068,-0.207,-0.204,-0.2049,-0.2049,-0.2049,-0.2049,0,-0.2869,-0.2823,-0.2744,-0.2707,-0.2653,-0.2599,-0.2548,-0.2506,-0.2451,-0.2405,-0.2365,-0.2324,-0.2261,-0.2212,-0.2174,-0.2116,-0.2101,-0.2078,-0.2068,-0.2081,-0.2084,-0.206,-0.206,-0.2048,-0.2048,-0.2048,-0.2048,0,-0.2875,-0.282,-0.2752,-0.2672,-0.2651,-0.2615,-0.2546,-0.2509,-0.2467,-0.241,-0.2393,-0.2327,-0.2266,-0.2213,-0.2134,-0.2108,-0.2048,-0.2037,-0.2069,-0.2064,-0.2047,-0.2049,-0.2001,-0.1992,-0.2007,-0.2007,-0.2007,0,-0.2862,-0.2825,-0.274,-0.2706,-0.2668,-0.2614,-0.2576,-0.2521,-0.2482,-0.2407,-0.2379,-0.2316,-0.2262,-0.2168,-0.2113,-0.2052,-0.2038,-0.2025,-0.2029,-0.2043,-0.2037,-0.204,-0.2036,-0.2026,-0.2026,-0.2026,-0.2026,0,-0.2843,-0.2818,-0.2763,-0.2699,-0.2653,-0.26,-0.2546,-0.2521,-0.2455,-0.2414,-0.2351,-0.231,-0.2228,-0.2166,-0.2098,-0.2059,-0.2032,-0.2025,-0.2017,-0.203,-0.2051,-0.2039,-0.207,-0.2027,-0.2027,-0.2027,-0.2027,-0.2027,-0.2838,-0.2803,-0.2738,-0.2678,-0.2632,-0.2582,-0.2542,-0.2495,-0.2441,-0.237,-0.2341,-0.2277,-0.2215,-0.2121,-0.2082,-0.2032,-0.2027,-0.2015,-0.2012,-0.201,-0.2012,-0.2059,-0.2019,-0.2019,-0.2019,-0.2019,-0.2019,0,-0.2818,-0.2773,-0.2719,-0.2644,-0.2597,-0.2574,-0.2513,-0.2475,-0.2419,-0.2363,-0.2311,-0.2239,-0.2178,-0.2118,-0.2054,-0.2025,-0.2011,-0.201,-0.2012,-0.2003,-0.2021,-0.2034,-0.2023,-0.2023,-0.2023,-0.2023,-0.2023,-0.2023,-0.2801,-0.274,-0.2707,-0.2623,-0.2579,-0.2515,-0.2482,-0.2436,-0.2391,-0.2312,-0.226,-0.2221,-0.2163,-0.2095,-0.2038,-0.2022,-0.2,-0.2003,-0.1983,-0.2001,-0.2002,-0.2002,-0.2014,-0.1999,-0.1999,-0.1969,-0.1969,-0.1969]},{"header":{"parameterUnit":"m.s-1","parameterCategory":1,"la1":30.2991,"la2":30.254,"lo1":-89.0895,"lo2":-89.0444,"dy":0.0017,"dx":0.0017,"nx":28,"ny":28,"refTime":"2026-02-26T03:00:00:Z","depth":0,"parameterNumber":3,"parameterNumberName":"V-component_of_WINDS"},"data":[0,0,0,0,0,0,0,0,0,0,0,0,0,0,0,0,0,0,0,0,0,0,0,0,0,0,0,0,0,0,0,0,0,0,0,0,0,0,0,0,0,0,0,0,0,0,0,0,0,0,0,0,0,0,0,0,0,0,-0.2225,-0.2225,0,-0.2264,-0.2265,-0.2265,-0.2244,-0.2243,-0.2242,-0.2241,-0.2286,-0.2288,-0.229,0,0,0,0,0,0,0,0,0,0,0,0,0,-0.2134,-0.2136,-0.2225,-0.2225,-0.2226,-0.2264,-0.2265,-0.2265,-0.2245,-0.2243,-0.2242,-0.2241,-0.2285,-0.2288,-0.229,0,0,0,0,0,0,0,0,0,0,0,0,0,-0.2174,-0.2136,-0.2225,-0.222,-0.222,-0.2264,-0.2265,-0.2266,-0.2245,-0.2243,-0.2242,-0.224,-0.2284,-0.2287,-0.2291,-0.2343,0,0,-0.2301,-0.2302,0,0,0,0,0,0,0,0,-0.2171,-0.2177,-0.222,-0.222,-0.222,-0.2248,-0.2249,-0.2292,-0.2245,-0.2236,-0.2241,-0.2239,-0.2275,-0.2279,-0.229,-0.2345,-0.2347,-0.2301,-0.2303,-0.2304,-0.2305,0,0,0,0,0,0,0,-0.2169,-0.2175,-0.2241,-0.2221,-0.2221,-0.2217,-0.2221,-0.2257,-0.2264,-0.2236,-0.2235,-0.224,-0.2274,-0.2287,-0.2291,-0.2348,-0.2301,-0.2304,-0.2306,-0.2307,-0.2448,-0.245,0,0,0,0,0,0,-0.2166,-0.2173,-0.2239,-0.2242,-0.2191,-0.222,-0.2224,-0.2241,-0.2263,-0.2265,-0.2241,-0.2238,-0.2282,-0.2287,-0.2292,-0.2355,-0.2304,-0.2307,-0.2309,-0.2446,-0.2449,-0.245,0,0,0,0,0,0,-0.2164,-0.2172,-0.2238,-0.2207,-0.2215,-0.2223,-0.2242,-0.2242,-0.2254,-0.2267,-0.2268,-0.2252,-0.2281,-0.2288,-0.233,-0.2356,-0.2309,-0.2312,-0.2444,-0.2447,-0.2449,-0.2482,0,0,0,0,0,0,-0.2161,-0.2171,-0.2191,-0.2208,-0.2217,-0.2275,-0.2243,-0.2244,-0.226,-0.2257,-0.2278,-0.2279,-0.228,-0.2325,-0.2334,-0.236,-0.2314,-0.2442,-0.2445,-0.2449,-0.2478,-0.2485,-0.2491,0,0,0,0,0,-0.2158,-0.2199,-0.2192,-0.22,-0.2241,-0.2276,-0.2281,-0.228,-0.2262,-0.2282,-0.229,-0.2279,-0.2352,-0.233,-0.2339,-0.2367,-0.244,-0.2444,-0.2448,-0.2475,-0.2484,-0.2491,0,0,0,0,0,0,-0.2187,-0.2201,-0.2193,-0.2241,-0.2257,-0.2272,-0.2298,-0.2289,-0.2312,-0.2308,-0.2307,-0.2312,-0.2356,-0.2366,-0.2341,-0.2419,-0.2393,-0.2399,-0.2411,-0.2419,-0.2425,-0.2423,-0.2317,0,0,0,0,0,-0.2198,-0.2224,-0.2236,-0.2277,-0.2285,-0.229,-0.2305,-0.2302,-0.232,-0.2327,-0.2338,-0.2357,-0.2384,-0.2402,-0.2427,-0.2479,-0.2484,-0.2503,-0.2509,-0.2514,-0.252,-0.2548,-0.2557,-0.2464,-0.2464,-0.2463,0,0,-0.2223,-0.2234,-0.2251,-0.2283,-0.2295,-0.2323,-0.2296,-0.2327,-0.2348,-0.2332,-0.2373,-0.2382,-0.2402,-0.245,-0.2471,-0.2459,-0.2546,-0.2519,-0.2523,-0.2526,-0.2553,-0.2562,-0.257,-0.2466,-0.2466,-0.2465,0,0,-0.2282,-0.2293,-0.2328,-0.2341,-0.2359,-0.2362,-0.237,-0.2386,-0.2391,-0.2432,-0.242,-0.2446,-0.2492,-0.2507,-0.2521,-0.2585,-0.2576,-0.2593,-0.2626,-0.2654,-0.2661,-0.2668,-0.2691,-0.2699,-0.2598,-0.2598,-0.2598,0,-0.2311,-0.2352,-0.2348,-0.2379,-0.2394,-0.2379,-0.2415,-0.2427,-0.2454,-0.2465,-0.245,-0.2508,-0.2521,-0.2571,-0.2587,-0.2598,-0.2608,-0.2591,-0.266,-0.2667,-0.2673,-0.2695,-0.2704,-0.26,-0.26,-0.26,-0.26,0,-0.2386,-0.2415,-0.2441,-0.2465,-0.2483,-0.2517,-0.2518,-0.2536,-0.2532,-0.2536,-0.2578,-0.2592,-0.262,-0.2632,-0.2628,-0.2682,-0.2674,-0.266,-0.2635,-0.2684,-0.2705,-0.2713,-0.2603,-0.2603,-0.2602,-0.2601,0,0,-0.2466,-0.2487,-0.2497,-0.2507,-0.2526,-0.2549,-0.2582,-0.2608,-0.2624,-0.2642,-0.267,-0.2709,-0.2696,-0.2711,-0.2709,-0.2733,-0.2783,-0.2716,-0.2717,-0.2729,-0.2844,-0.2855,-0.2865,-0.2777,-0.2778,-0.278,-0.2843,0,-0.2527,-0.2584,-0.2581,-0.2634,-0.2661,-0.2646,-0.2675,-0.269,-0.2695,-0.2719,-0.2725,-0.2752,-0.2733,-0.2742,-0.2765,-0.2772,-0.2807,-0.2768,-0.2804,-0.2806,-0.2801,-0.2876,-0.2888,-0.2947,-0.2851,-0.2852,-0.2853,0,-0.2606,-0.2626,-0.2682,-0.2696,-0.2707,-0.2733,-0.2757,-0.2779,-0.2796,-0.2798,-0.2815,-0.2808,-0.2842,-0.2815,-0.2863,-0.2836,-0.2851,-0.2857,-0.2859,-0.2864,-0.2833,-0.2883,-0.2966,-0.2975,-0.2866,-0.2865,-0.2864,0,-0.266,-0.27,-0.2739,-0.2749,-0.2766,-0.2785,-0.2793,-0.2808,-0.2824,-0.2845,-0.2855,-0.288,-0.2894,-0.2913,-0.2914,-0.2894,-0.2963,-0.2935,-0.2966,-0.2966,-0.2982,-0.2982,-0.3069,-0.299,-0.299,-0.299,-0.299,0,-0.2729,-0.2764,-0.2763,-0.2787,-0.2826,-0.2822,-0.2861,-0.2867,-0.2881,-0.2906,-0.2895,-0.292,-0.2919,-0.2944,-0.2945,-0.2984,-0.2991,-0.2994,-0.2994,-0.2995,-0.2995,-0.3006,-0.3002,-0.2992,-0.2992,-0.2991,-0.2991,0,-0.2796,-0.2796,-0.2838,-0.285,-0.2854,-0.2882,-0.2894,-0.2917,-0.292,-0.2952,-0.296,-0.2965,-0.2994,-0.2996,-0.303,-0.3031,-0.3079,-0.3074,-0.3073,-0.3073,-0.3103,-0.3101,-0.3202,-0.3215,-0.3127,-0.3127,-0.3128,0,-0.284,-0.2867,-0.2882,-0.2897,-0.2906,-0.2932,-0.2948,-0.2944,-0.2961,-0.2982,-0.3003,-0.303,-0.3052,-0.3099,-0.3107,-0.3132,-0.3129,-0.3162,-0.3133,-0.3133,-0.313,-0.3129,-0.3132,-0.3169,-0.3169,-0.317,-0.3171,0,-0.2919,-0.2918,-0.294,-0.2963,-0.2982,-0.2999,-0.3016,-0.303,-0.3029,-0.3048,-0.3077,-0.3094,-0.3127,-0.3155,-0.318,-0.3189,-0.3181,-0.318,-0.3188,-0.3191,-0.3189,-0.3191,-0.309,-0.3178,-0.3177,-0.3177,-0.3176,-0.3176,-0.2977,-0.3,-0.3014,-0.3039,-0.3051,-0.3066,-0.3088,-0.3094,-0.3117,-0.3144,-0.314,-0.3172,-0.3188,-0.3221,-0.3232,-0.3257,-0.3246,-0.3259,-0.3262,-0.3265,-0.3269,-0.3184,-0.3262,-0.3262,-0.3261,-0.3261,-0.3261,0,-0.3056,-0.3064,-0.3087,-0.311,-0.313,-0.3118,-0.3136,-0.3154,-0.3181,-0.3196,-0.3218,-0.3251,-0.3277,-0.3286,-0.3312,-0.3331,-0.3328,-0.3338,-0.3337,-0.334,-0.3277,-0.3267,-0.334,-0.334,-0.334,-0.334,-0.334,-0.334,-0.31,-0.3138,-0.3138,-0.3182,-0.319,-0.322,-0.3231,-0.3246,-0.3258,-0.3294,-0.3316,-0.3321,-0.3334,-0.3361,-0.3385,-0.3387,-0.3397,-0.341,-0.341,-0.3352,-0.3344,-0.3337,-0.3327,-0.3412,-0.3412,-0.3471,-0.3472,-0.3472]}]]